Погода в Котово

Россия / Волгоградская область     50°19′19″N   44°48′04″E
темп.,
°C
ветер,
м/с
пор.,
м/с
влажн.,
%
обл.,
%
осадки,
мм/ч
давл.,
гПа
погр.,
м
22 апреля, чт
чт2200:00+8ююз33846 0.1 102038
03:00+7юз22855 0.1 102122
06:00+8ююз22835 0.0 102236
09:00+13юз33639 0.0 1022559
12:00+16ююз34515 0.4 10221501
15:00+16юз344699 1.3 10211994
18:00+15зсз0157100 0.2 102212
21:00+12с116545 0.2 102311
23 апреля, пт
пт2300:00+10св227142 0.0 102211
03:00+10всв2274100 0.0 102219
06:00+10в3581100 0.0 1022102
09:00+11вюв4674100 0.1 1022357
12:00+13юв4564100 0.3 1021574
15:00+14ю2257100 1.6 1019625
18:00+11зсз4583100 1.9 1019241
21:00+10с358799 2.1 1018142
24 апреля, сб
сб2400:00+8з228976 0.0 101714
03:00+9зюз1186100 0.0 101516
06:00+9ююз2387100 0.0 1015101
09:00+12ююз567298 0.4 1014568
12:00+15зюз895299 0.3 10131619
15:00+13зюз8116367 0.8 10121183
18:00+10з81068100 0.3 10141216
21:00+7зюз497922 0.4 1015240
25 апреля, вс
вс2500:00+6юз410824 0.1 1015249
03:00+5зюз4117969 0.1 1016280
06:00+5зюз51178100 0.0 1016515
09:00+7з89635 0.0 10171193
12:00+10з894916 0.0 10181773
15:00+10зсз7952100 0.0 10191709
18:00+8зсз3560100 0.0 1020829
21:00+6юз1261100 0.0 102011
26 апреля, пн
пн2600:00+5зсз1163100 0.0 102110
03:00+4всв116361 0.0 102110
06:00+5в116462 0.0 102012
09:00+9вюв2246100 0.0 1020905
12:00+11юв3338100 0.0 10181687
15:00+12юв3337100 0.0 10171847
18:00+10вюв3549100 0.0 1016215
21:00+7ю3357100 0.0 101534